Location: *
(50.8160°S, 176.0219°W)
Time: 23:38:59
(UTC+00:00)

Resurs 01 Rocket - Pass Details

Date: 19 May 2026
Orbit: 627 x 634 km, 97.7° (Epoch: 11 June)

Event Time Altitude Azimuth Distance (km) Brightness Sun altitude
Rises 18:27:29 0° 12° (NNE) 2,935 5.5 -8.2°
Reaches altitude 10° 18:29:40 10° 10° (N) 2,033 4.7 -7.9°
Maximum altitude 18:34:07 78° 283° (WNW) 665 1.6 -7.3°
Drops below altitude 10° 18:38:37 10° 196° (SSW) 2,058 3.9 -6.6°
Sets 18:40:51 0° 194° (SSW) 2,973 4.7 -6.3°
